Regional Weather Roundup
Issued by NWS

Home | Current Version | Previous Version | Text Only | Print | Product List | Glossary On
Versions: 1 2 3 4 5 6 7 8 9 10 11 12 13 14 15 16 17 18 19 20 21 22 23 24 25 26 27 28 29 30 31 32 33 34 35 36 37 38 39 40 41 42 43 44 45 46 47 48 49 50
000
ASUS43 KLOT 200503
RWRIL

ILLINOIS REGIONAL WEATHER ROUNDUP
NATIONAL WEATHER SERVICE CHICAGO/ROMEOVILLE IL
1100 PM CST SUN NOV 19 2017

NOTE: "FAIR" INDICATES FEW OR NO CLOUDS BELOW 12,000 FEET WITH NO
SIGNIFICANT WEATHER AND/OR OBSTRUCTIONS TO VISIBILITY.

* THESE STATIONS ARE NOT UNDER NWS QUALITY CONTROL. THEY ALSO MAY NOT
  REPORT WEATHER SUCH AS PRECIPITATION OR FOG.

ILZ001-002-007-009-015-016-024-200600-
NORTHWEST ILLINOIS

CITY           SKY/WX    TMP DP  RH WIND       PRES   REMARKS
MOLINE         CLOUDY    35  23  61 SW9       30.04F WCI  28
STERLING*        N/A     30  24  78 MISG      30.05
SAVANNA*       CLOUDY    27  23  85 S5        30.03F WCI  21
$$

ILZ003-004-008-010-011-017-018-200600-
NORTH CENTRAL ILLINOIS

CITY           SKY/WX    TMP DP  RH WIND       PRES   REMARKS
ROCKFORD       CLOUDY    26  21  81 S6        30.05F WCI  19
FREEPORT*      CLOUDY    30  22  73 SW17      30.03S WCI  18
ROCHELLE*      CLOUDY    24  21  88 CALM      30.05F
DE KALB*       CLEAR     23  21  91 S6        30.05S WCI  16
PERU*          CLOUDY    30  22  70 SW9       30.08S WCI  22
$$

ILZ005-006-012>014-019>023-200600-
NORTHEAST ILLINOIS

CITY           SKY/WX    TMP DP  RH WIND       PRES   REMARKS
CHICAGO-OHARE  PTCLDY    30  20  66 SW9       30.05F WCI  22
CHICAGO-MIDWAY PTCLDY    31  21  66 SW8       30.07F WCI  23
AURORA         CLEAR     26  21  81 S5        30.07F WCI  20
LANSING*       PTCLDY    30  23  76 SW8       30.09F WCI  22
JOLIET*        CLEAR     28  24  82 S5        30.09F WCI  23
WAUKEGAN       CLEAR     30  20  66 SW9       30.02F WCI  22
DUPAGE AIRPORT CLEAR     25  21  85 S6        30.05F WCI  18
KANKAKEE*      CLEAR     29  22  78 SW7       30.11F WCI  21
WHEELING       CLEAR     31  21  66 SW8       30.06F WCI  23
MORRIS*        CLOUDY    27  23  82 S5        30.07F WCI  22
ROMEOVILLE*    CLEAR     27  23  84 SW7       30.08F WCI  20
NORTHERLY ISL    N/A     32  20  61 W12         N/A  WCI  23
$$

LMZ740>746-200600-
SOUTHERN LAKE MICHIGAN

STATION/POSITION SKY/WX   TEMP    WIND        PRES    VSBY  WAVE
                          AIR SEA DIR/SP/G                  HT/PER
                          (F)     (DEG/KT/KT) (MB)    (MI)  (FT/S)
SOUTHERN BUOY              37 49  290/ 19/ 25 1017.0          5/ 5
HARRISON CRIB              35     250/ 21/ 24   N/A
BURNHAM HARBOR             32     270/ 10/ 13   N/A
CALUMET HARBOR             31     230/  8/ 14 1017.7F
BURNS HARBOR               30     210/  8/ 12 1019.3S
MICHIGAN CITY              31     190/ 12/ 15   N/A
$$

ILZ025>027-034>036-040-047-049-050-058-095>099-200600-
WEST-CENTRAL ILLINOIS

CITY           SKY/WX    TMP DP  RH WIND       PRES   REMARKS
QUINCY         CLEAR     34  23  64 S9        30.09F WCI  27
GALESBURG*     CLOUDY    32  26  78 S8        30.08S WCI  25
MACOMB*        CLOUDY    32  25  74 S6        30.10F WCI  26
JACKSONVILLE*  CLOUDY    33  22  64 S9        30.13F WCI  25
PITTSFIELD*    CLEAR     33  23  67 S7        30.13S WCI  26
$$

ILZ028>032-037-038-041>044-048-051>054-059>061-200600-
CENTRAL ILLINOIS

CITY           SKY/WX    TMP DP  RH WIND       PRES   REMARKS
PONTIAC        CLOUDY    31  25  80 SW9       30.11F WCI  23
BLOOMINGTON    CLOUDY    30  23  75 SW13      30.11F WCI  20
DECATUR        CLOUDY    28  22  78 SW7       30.15F WCI  21
PEORIA         PTCLDY    29  22  75 S6        30.10F WCI  23
LACON*         CLOUDY    32  23  69 SW7       30.08F WCI  26
LINCOLN*       CLOUDY    30  25  80 S3        30.13F
SPRINGFIELD    CLOUDY    32  23  69 S8        30.14F WCI  25
TAYLORVILLE    CLOUDY    30  24  78 S7        30.16F WCI  23
$$

ILZ033-039-045-046-055>057-062-063-200600-
EAST-CENTRAL ILLINOIS

CITY           SKY/WX    TMP DP  RH WIND       PRES   REMARKS
CHAMPAIGN      CLOUDY    30  24  78 SW10      30.14F WCI  21
DANVILLE*      CLEAR     28  23  82 W6        30.11F WCI  21
RANTOUL*       PTCLDY    32  26  77 SW8       30.13F WCI  25
MATTOON        CLEAR     32  22  66 SW6       30.16S WCI  26
PARIS*         CLEAR     28  25  86 SW9       30.17S WCI  20
$$

ILZ079-100>102-200600-
SOUTHWEST ILLINOIS

CITY           SKY/WX    TMP DP  RH WIND       PRES   REMARKS
ALTON          CLEAR     27  24  87 S6        30.18F WCI  20
BELLEVILLE     CLEAR     26  22  83 CALM      30.19S
CAHOKIA*       CLEAR     27  22  81 CALM      30.20R
SPARTA*        CLEAR     27  24  89 SE3       30.21F
$$

ILZ064>066-069>071-074>076-080>082-084>086-088>090-092>094-200600-
SOUTH-CENTRAL ILLINOIS

CITY           SKY/WX    TMP DP  RH WIND       PRES   REMARKS
CARBONDALE     CLEAR     26  23  88 CALM      30.23S
CAIRO*         CLEAR     28  26  91 CALM      30.25S
EFFINGHAM*     CLOUDY    28  24  88 S3        30.20F
MARION         CLEAR     28  24  86 CALM      30.24S
MT. VERNON     CLEAR     23  22  96 CALM      30.21F
CENTRALIA*     PTCLDY    29  25  84 CALM      30.20F
SALEM*         CLOUDY    30  23  74 CALM      30.20S
METROPOLIS*    CLEAR     27  24  91 CALM      30.25F
$$

ILZ067-068-072-073-078-083-087-091-200600-
SOUTHEAST ILLINOIS

CITY           SKY/WX    TMP DP  RH WIND       PRES   REMARKS
LAWRENCEVILLE  CLEAR     29  23  78 S6        30.21F WCI  23
FLORA*         CLEAR     27  24  86 CALM      30.17S
FAIRFIELD*     CLOUDY    25  22  90 CALM      30.21S
HARRISBURG*    CLEAR     25  23  91 CALM      30.24S
ROBINSON*      CLEAR     28  22  77 SW5       30.21S WCI  23
CARMI*         CLEAR     26  23  89 CALM      30.22F
$$

ABBREVIATIONS USED IN REMARKS
   TC - TEMPERATURE IN CELSIUS
  WCI - WIND CHILL INDEX
   HX - HEAT INDEX
  VSB - VISIBILITY
$$




USA.gov is the U.S. government's official web portal to all federal, state and local government web resources and services.